C/2020 P3 ( ATLAS )

Japanese version
Home page
Updated on December 11, 2022

---------------------------------------------------------------------

* Profile

Discovery Date August 9, 2020
Magnitude 19.0 mag
Discoverer Asteroid Terrestrial-Impact Last Alert System (ATLAS) search program

* Pictures

* Orbital Elements

Epoch 2022 Aug. 9.0 TT = JDT 2459800.5
T 2021 Apr. 20.97332 TT                                 Rudenko
q   6.8123398            (2000.0)            P               Q
z  -0.0000607      Peri.   82.25694     -0.02858028     -0.95538943
 +/-0.0000008      Node    19.46800     +0.09742655     -0.29534531
e   1.0004135      Incl.   61.88808     +0.99483227     +0.00147681
>From 639 observations 2020 Aug. 9-2022 Oct. 25, mean residual 0".5.

* Magnitudes Graph

        m1 = -3.5 + 5 log d + 20.0 log r(t - 150)

---------------------------------------------------------------------

The orbital elements are published on M.P.E.C. 2022-U349.
The magnitudes graphs are made with Comet for Windows.

---------------------------------------------------------------------

Copyright(C) Seiichi Yoshida (comet@aerith.net). All rights reserved.